TimeAST,TemperatureF,Dew PointF,Humidity,Sea Level PressureIn,VisibilityMPH,Wind Direction,Wind SpeedMPH,Gust SpeedMPH,PrecipitationIn,Events,Conditions,WindDirDegrees,DateUTC
12:00 AM,73.4,59.0,61,29.98,6.2,ENE,8.1,-,N/A,,Mostly Cloudy,70,2013-03-14 04:00:00
1:00 AM,73.4,57.2,57,29.95,6.2,ENE,8.1,-,N/A,,Mostly Cloudy,70,2013-03-14 05:00:00
2:00 AM,74,58,46,29.96,19,East,5.8,,,,Mostly Cloudy,80,2013-03-14 06:00:00
2:00 AM,73.4,57.2,57,29.95,6.2,East,5.8,-,N/A,,Mostly Cloudy,80,2013-03-14 06:00:00
3:00 AM,73.4,57.2,57,29.92,6.2,ENE,6.9,-,N/A,,Mostly Cloudy,70,2013-03-14 07:00:00
5:00 AM,74,57,45,29.93,19,,2.3,,,,Mostly Cloudy,,2013-03-14 09:00:00
5:00 AM,75.2,57.2,53,29.92,6.2,Variable,2.3,-,N/A,,Mostly Cloudy,0,2013-03-14 09:00:00
6:00 AM,75.2,59.0,57,29.92,6.2,ESE,3.5,-,N/A,,Mostly Cloudy,110,2013-03-14 10:00:00
7:00 AM,75.2,59.0,57,29.95,6.2,ENE,8.1,-,N/A,,Scattered Clouds,60,2013-03-14 11:00:00
8:00 AM,76,58,43,29.99,19,East,9.2,,,,Mostly Cloudy,80,2013-03-14 12:00:00
8:00 AM,77.0,57.2,50,29.98,6.2,East,9.2,-,N/A,,Mostly Cloudy,80,2013-03-14 12:00:00
9:00 AM,77.0,57.2,50,30.01,6.2,East,5.8,-,N/A,,Mostly Cloudy,100,2013-03-14 13:00:00
10:00 AM,80.6,57.2,45,30.01,6.2,East,8.1,-,N/A,,Mostly Cloudy,90,2013-03-14 14:00:00
11:00 AM,80,60,41,30.01,19,East,5.8,,,,Mostly Cloudy,100,2013-03-14 15:00:00
11:00 AM,80.6,60.8,51,30.01,6.2,East,5.8,-,N/A,,Mostly Cloudy,100,2013-03-14 15:00:00
12:00 PM,80.6,57.2,45,29.98,6.2,East,10.4,-,N/A,,Mostly Cloudy,80,2013-03-14 16:00:00
1:00 PM,80.6,59.0,48,29.98,6.2,East,8.1,-,N/A,,Mostly Cloudy,80,2013-03-14 17:00:00
2:00 PM,80,58,36,29.96,19,ENE,9.2,,,,Mostly Cloudy,70,2013-03-14 18:00:00
2:00 PM,80.6,57.2,45,29.95,6.2,ENE,9.2,-,N/A,,Mostly Cloudy,70,2013-03-14 18:00:00
3:00 PM,80.6,57.2,45,29.92,6.2,East,8.1,-,N/A,,Scattered Clouds,80,2013-03-14 19:00:00
4:00 PM,78.8,57.2,47,29.92,6.2,ENE,8.1,-,N/A,,Partly Cloudy,70,2013-03-14 20:00:00
5:00 PM,78,58,40,29.93,19,East,5.8,,,,Scattered Clouds,90,2013-03-14 21:00:00
5:00 PM,78.8,59.0,51,29.92,6.2,East,5.8,-,N/A,,Partly Cloudy,90,2013-03-14 21:00:00
6:00 PM,77.0,59.0,54,29.92,6.2,East,5.8,-,N/A,,Partly Cloudy,80,2013-03-14 22:00:00
7:00 PM,75.2,60.8,61,29.95,6.2,East,5.8,-,N/A,,Mostly Cloudy,80,2013-03-14 23:00:00
8:00 PM,74,62,56,29.95,19,East,3.5,,,,Scattered Clouds,90,2013-03-15 00:00:00
8:00 PM,75.2,60.8,61,29.95,6.2,East,3.5,-,N/A,,Mostly Cloudy,90,2013-03-15 00:00:00
9:00 PM,75.2,62.6,65,29.95,6.2,ENE,6.9,-,N/A,,Mostly Cloudy,70,2013-03-15 01:00:00
10:00 PM,75.2,62.6,65,29.95,6.2,East,6.9,-,N/A,,Mostly Cloudy,80,2013-03-15 02:00:00
11:00 PM,74,61,55,29.96,19,East,4.6,,,,Scattered Clouds,80,2013-03-15 03:00:00
11:00 PM,73.4,60.8,65,29.95,6.2,East,4.6,-,N/A,,Partly Cloudy,80,2013-03-15 03:00:00